Weather in Penrith

Australia     33°45′17″S   150°41′39″E
temp.,
°C
wind,
m/s
gust,
m/s
humid.,
%
clouds,
%
prec.,
mm/h
press.,
hPa
HPBL,
m
7 march, sun
sun723:00+18ssw236939 0.0 1015216
02:00+17ssw2369100 0.0 1014203
05:00+16sw127684 0.0 101454
08:00+16w11747 0.0 101588
11:00+23nne344832 0.0 10151201
14:00+28ne34356 0.0 10121874
17:00+28ene553813 0.0 10111561
20:00+21ne5106668 0.0 1012496
8 march, mon
mon823:00+18nne238580 0.0 1013170
02:00+17nnw129199 0.0 101265
05:00+16w119182 0.0 101251
08:00+18nw01792 0.0 101284
11:00+26nne244750 0.0 1013647
14:00+33nw5825100 0.0 10103298
17:00+29nw5839100 0.0 10091367
20:00+23nnw3957100 0.0 1011314
9 march, tue
tue923:00+20n127367 0.0 101375
02:00+19se127475 0.0 101259
05:00+18s128170 0.0 101254
08:00+19n0173100 0.0 101355
11:00+29ese124268 0.0 1014758
14:00+33ene042614 0.0 10122390
17:00+28ese565138 0.0 1012843
20:00+21se377725 0.0 1015471
10 march, wed
wed1023:00+21s257959 0.1 1018440
02:00+20s1384100 0.3 1018226
05:00+20s138799 0.6 1018143
08:00+20sse1386100 0.4 1020260
11:00+22se2476100 0.9 1021680
14:00+23ese3463100 0.2 1020982
17:00+22ese3569100 0.3 1019861
20:00+20e1384100 0.6 1021215
11 march, thu
thu1123:00+19sw0184100 0.9 1021196
02:00+19nw0185100 0.0 1020162
05:00+19sw1188100 0.1 1019145
08:00+19ssw1289100 0.4 1019157
11:00+20e2587100 1.1 1019562
14:00+19s2588100 1.9 1018394
17:00+19s1388100 2.6 1016333
20:00+19ssw2490100 0.3 1017220